Tracking 18850 objects as of 22-Nov-2017
HD Live streaming from Space Station
objects crossing your sky now

FENGYUN 1C DEB

Track FENGYUN 1C DEB now!
10-day predictions


NORAD ID: 30932
Int'l Code: 1999-025AZW
Perigee: 824.6 km
Apogee: 940.1 km
Inclination: 98.9 °
Period: 102.5 minutes
Semi major axis: 7253 km
RCS: 0.0074 m2 (small)
Launch date: May 10, 1999
Source: People's Republic of China (PRC)
Launch site: Taiyaun Space Center, China (TSC)

Note: This is SATELLITE DEBRIS
aabbcc
Your satellite tracking list
Your tracking list is empty




NASA's NSSDC Master Catalog

Two Line Element Set (TLE):
1 30932U 99025AZW 17322.70755021 +.00001381 +00000-0 +85441-3 0  9992
2 30932 098.9043 239.6915 0079598 321.4137 097.1806 14.05391495548544
Source of the keplerian elements: AFSPC